When you browse on this site, cookies collect data to enhance your experience and personalize the content and advertising you see.
Visit our Privacy Policy to learn more. By continuing to use the site, you agree to this use of cookies and data.
  • en France
  • Liste des pays
  • À 7 jours
  • Température de l'eau
  • Carte météo
  • Widgets météo
  • user-avatar
    Se connecter

    Météo par heure à Morpeth

    Ce jour, 27 Février, Jeudi

    Heure Température Précipitation Vent Pression Humidité
    00:00 0°C° 0 mm 5 m/s 743 mmHg 86%
    01:00 0°C° 0 mm 5 m/s 742 mmHg 87%
    02:00 0°C° 0 mm 5 m/s 742 mmHg 88%
    03:00 0°C° 0 mm 4 m/s 742 mmHg 89%
    04:00 0°C° 0 mm 5 m/s 741 mmHg 89%
    05:00 -1°C° 0 mm 5 m/s 741 mmHg 89%
    06:00 -1°C° 0 mm 5 m/s 741 mmHg 89%
    07:00 -2°C° 0 mm 6 m/s 741 mmHg 82%
    08:00 -1°C° 0 mm 6 m/s 741 mmHg 75%
    09:00 -1°C° 0 mm 7 m/s 742 mmHg 68%
    10:00 0°C° 0 mm 7 m/s 742 mmHg 64%
    11:00 +1°C° 0 mm 8 m/s 743 mmHg 59%
    12:00 +2°C° 0 mm 8 m/s 743 mmHg 55%
    13:00 +2°C° 0 mm 8 m/s 744 mmHg 55%
    14:00 +2°C° 0 mm 8 m/s 744 mmHg 55%
    15:00 +2°C° 0 mm 8 m/s 745 mmHg 55%
    16:00 +1°C° 0 mm 8 m/s 745 mmHg 60%
    17:00 +1°C° 0 mm 8 m/s 746 mmHg 64%
    18:00 0°C° 0 mm 8 m/s 747 mmHg 69%
    19:00 -1°C° 0 mm 7 m/s 747 mmHg 71%
    20:00 -1°C° 0 mm 7 m/s 748 mmHg 73%
    21:00 -1°C° 0 mm 7 m/s 749 mmHg 76%
    22:00 -1°C° 0 mm 7 m/s 749 mmHg 77%
    23:00 -1°C° 0 mm 6 m/s 750 mmHg 78%

    Demain, 28 Février, Vendredi

    Heure Température Précipitation Vent Pression Humidité
    00:00 -2°C° 0 mm 6 m/s 750 mmHg 80%
    01:00 -1°C° 0 mm 6 m/s 750 mmHg 80%
    02:00 0°C° 0 mm 5 m/s 750 mmHg 80%
    03:00 0°C° 0 mm 5 m/s 749 mmHg 80%
    04:00 0°C° 0 mm 5 m/s 749 mmHg 80%
    05:00 0°C° 0 mm 5 m/s 749 mmHg 80%
    06:00 +1°C° 0 mm 5 m/s 749 mmHg 80%
    07:00 +1°C° 0 mm 5 m/s 748 mmHg 77%
    08:00 +1°C° 0 mm 6 m/s 748 mmHg 75%
    09:00 0°C° 0 mm 7 m/s 747 mmHg 72%
    10:00 0°C° 0.1 mm 7 m/s 746 mmHg 76%
    11:00 0°C° 0.1 mm 8 m/s 745 mmHg 81%
    12:00 0°C° 0.1 mm 9 m/s 744 mmHg 85%
    13:00 0°C° 1.3 mm 9 m/s 742 mmHg 89%
    14:00 -1°C° 1.3 mm 8 m/s 740 mmHg 93%
    15:00 -1°C° 1.3 mm 8 m/s 739 mmHg 96%
    16:00 +1°C° 0.7 mm 6 m/s 737 mmHg 96%
    17:00 +1°C° 0.7 mm 5 m/s 736 mmHg 96%
    18:00 +3°C° 0.7 mm 4 m/s 735 mmHg 96%
    19:00 +3°C° 0.1 mm 3 m/s 734 mmHg 96%
    20:00 +4°C° 0.1 mm 3 m/s 734 mmHg 96%
    21:00 +4°C° 0.1 mm 3 m/s 733 mmHg 96%
    22:00 +4°C° 0 mm 3 m/s 732 mmHg 97%
    23:00 +5°C° 0 mm 3 m/s 731 mmHg 97%

    Après-demain, 29 Février, Samedi

    Heure Température Précipitation Vent Pression Humidité
    00:00 +5°C° 0 mm 3 m/s 731 mmHg 97%
    01:00 +5°C° 1 mm 4 m/s 729 mmHg 97%
    02:00 +6°C° 1 mm 5 m/s 728 mmHg 96%
    03:00 +7°C° 1 mm 6 m/s 726 mmHg 95%
    04:00 +6°C° 0.2 mm 7 m/s 725 mmHg 94%
    05:00 +6°C° 0.2 mm 7 m/s 723 mmHg 92%
    06:00 +7°C° 0.2 mm 8 m/s 722 mmHg 91%
    07:00 +5°C° 0.2 mm 8 m/s 722 mmHg 88%
    08:00 +3°C° 0.2 mm 9 m/s 722 mmHg 85%
    09:00 +2°C° 0.2 mm 10 m/s 722 mmHg 82%
    10:00 +2°C° 0 mm 10 m/s 722 mmHg 75%
    11:00 +2°C° 0 mm 10 m/s 722 mmHg 68%
    12:00 +2°C° 0 mm 11 m/s 723 mmHg 61%
    13:00 +2°C° 0 mm 10 m/s 722 mmHg 61%
    14:00 +2°C° 0 mm 10 m/s 722 mmHg 61%
    15:00 +2°C° 0 mm 10 m/s 721 mmHg 60%
    16:00 +1°C° 0.1 mm 10 m/s 720 mmHg 67%
    17:00 -1°C° 0.1 mm 11 m/s 718 mmHg 74%
    18:00 -2°C° 0.1 mm 11 m/s 717 mmHg 81%
    19:00 -2°C° 1.2 mm 10 m/s 715 mmHg 85%
    20:00 0°C° 1.2 mm 9 m/s 714 mmHg 90%
    21:00 0°C° 1.2 mm 8 m/s 713 mmHg 94%
    22:00 0°C° 0.1 mm 8 m/s 713 mmHg 91%
    23:00 0°C° 0.1 mm 9 m/s 712 mmHg 89%

    1 Mars, Dimanche

    Heure Température Précipitation Vent Pression Humidité
    00:00 0°C° 0.1 mm 9 m/s 712 mmHg 87%
    01:00 -1°C° 0.3 mm 9 m/s 713 mmHg 88%
    02:00 -2°C° 0.3 mm 10 m/s 713 mmHg 89%
    03:00 -2°C° 0.3 mm 11 m/s 714 mmHg 90%
    04:00 -2°C° 0 mm 11 m/s 714 mmHg 88%
    05:00 -2°C° 0 mm 10 m/s 715 mmHg 85%
    06:00 -2°C° 0 mm 10 m/s 716 mmHg 83%
    07:00 -2°C° 0 mm 10 m/s 717 mmHg 81%
    08:00 -2°C° 0 mm 10 m/s 718 mmHg 80%
    09:00 0°C° 0 mm 10 m/s 719 mmHg 79%
    10:00 0°C° 0.1 mm 9 m/s 720 mmHg 81%
    11:00 +1°C° 0.1 mm 8 m/s 721 mmHg 84%
    12:00 +1°C° 0.1 mm 8 m/s 722 mmHg 86%
    13:00 +1°C° 1 mm 8 m/s 722 mmHg 88%
    14:00 +1°C° 1 mm 8 m/s 722 mmHg 90%
    15:00 0°C° 1 mm 8 m/s 723 mmHg 92%
    16:00 +1°C° 1.2 mm 6 m/s 724 mmHg 93%
    17:00 +1°C° 1.2 mm 5 m/s 724 mmHg 94%
    18:00 0°C° 1.2 mm 4 m/s 725 mmHg 95%
    19:00 0°C° 0 mm 5 m/s 726 mmHg 91%
    20:00 -1°C° 0 mm 7 m/s 727 mmHg 87%
    21:00 -1°C° 0 mm 8 m/s 728 mmHg 83%
    22:00 -1°C° 0 mm 8 m/s 729 mmHg 84%
    23:00 -1°C° 0 mm 7 m/s 730 mmHg 84%

    2 Mars, Lundi

    Heure Température Précipitation Vent Pression Humidité
    00:00 -1°C° 0 mm 6 m/s 731 mmHg 85%
    01:00 -1°C° 0 mm 6 m/s 731 mmHg 86%
    02:00 -2°C° 0 mm 6 m/s 732 mmHg 88%
    03:00 -2°C° 0 mm 6 m/s 732 mmHg 89%
    04:00 -1°C° 0 mm 5 m/s 733 mmHg 90%
    05:00 -1°C° 0 mm 5 m/s 733 mmHg 90%
    06:00 -1°C° 0 mm 5 m/s 734 mmHg 91%
    07:00 -1°C° 0 mm 5 m/s 734 mmHg 90%
    08:00 0°C° 0 mm 5 m/s 735 mmHg 89%
    09:00 +1°C° 0 mm 5 m/s 735 mmHg 87%
    10:00 +1°C° 0 mm 5 m/s 736 mmHg 83%
    11:00 +2°C° 0 mm 5 m/s 737 mmHg 79%
    12:00 +3°C° 0 mm 6 m/s 737 mmHg 75%
    13:00 +3°C° 0.1 mm 5 m/s 738 mmHg 73%
    14:00 +3°C° 0.1 mm 5 m/s 739 mmHg 71%
    15:00 +3°C° 0.1 mm 5 m/s 739 mmHg 69%
    16:00 +3°C° 0 mm 4 m/s 740 mmHg 72%
    17:00 +2°C° 0 mm 3 m/s 741 mmHg 75%
    18:00 +2°C° 0 mm 2 m/s 741 mmHg 78%
    19:00 +1°C° 0 mm 2 m/s 742 mmHg 81%
    20:00 +1°C° 0 mm 2 m/s 742 mmHg 84%
    21:00 0°C° 0 mm 3 m/s 743 mmHg 88%
    22:00 0°C° 0 mm 3 m/s 743 mmHg 89%
    23:00 0°C° 0 mm 3 m/s 744 mmHg 90%

    3 Mars, Mardi

    Heure Température Précipitation Vent Pression Humidité
    00:00 0°C° 0 mm 4 m/s 744 mmHg 90%
    01:00 -1°C° 0 mm 4 m/s 744 mmHg 90%
    02:00 -1°C° 0 mm 4 m/s 744 mmHg 89%
    03:00 -2°C° 0 mm 4 m/s 744 mmHg 88%
    04:00 -2°C° 0 mm 4 m/s 745 mmHg 88%
    05:00 -2°C° 0 mm 4 m/s 745 mmHg 87%
    06:00 -2°C° 0 mm 4 m/s 745 mmHg 86%
    07:00 -1°C° 0 mm 5 m/s 745 mmHg 84%
    08:00 0°C° 0 mm 5 m/s 745 mmHg 81%
    09:00 -1°C° 0 mm 6 m/s 746 mmHg 79%
    10:00 +1°C° 0 mm 5 m/s 746 mmHg 74%
    11:00 +2°C° 0 mm 5 m/s 746 mmHg 70%
    12:00 +4°C° 0 mm 4 m/s 746 mmHg 65%
    13:00 +4°C° 0 mm 4 m/s 746 mmHg 64%
    14:00 +4°C° 0 mm 3 m/s 746 mmHg 63%
    15:00 +5°C° 0 mm 2 m/s 746 mmHg 62%
    16:00 +4°C° 0 mm 2 m/s 746 mmHg 68%
    17:00 +3°C° 0 mm 1 m/s 746 mmHg 75%
    18:00 +2°C° 0 mm 1 m/s 746 mmHg 81%
    19:00 +2°C° 0 mm 1 m/s 746 mmHg 82%
    20:00 +1°C° 0 mm 1 m/s 746 mmHg 83%
    21:00 0°C° 0 mm 0 m/s 747 mmHg 84%
    22:00 0°C° 0 mm 0 m/s 747 mmHg 84%
    23:00 +1°C° 0 mm 1 m/s 747 mmHg 85%
    Voir plus